Location: Misciano
(43.5000°N, 11.9500°E)
Time: 10:30:11
(UTC+00:00)

USA 238 - Pass Details

Date: 13 August 2020
Orbit: 1006 x 1206 km, 63.4° (Epoch: 17 September)

Event Time Altitude Azimuth Distance (km) Brightness Sun altitude
Rises 20:26:23 0° 231° (SW) 3,737 6.6 -20.3°
Reaches altitude 10° 20:29:00 10° 236° (SW) 2,803 6.0 -20.6°
Maximum altitude 20:35:27 55° 313° (NW) 1,242 4.3 -21.4°
Drops below altitude 10° 20:42:13 10° 31° (NNE) 2,931 6.2 -22.2°
Sets 20:45:02 0° 36° (NE) 3,922 6.8 -22.6°
